Niagara Falls, NY

8:00 AM EST on November 18, 2017 (GMT -0500)
Niagara Falls International

Weather History for KIAG - November, 2013

Change the Weather History Date:

Sunday, November 17, 2013

  Actual Average Record
Temperature  
Mean Temperature 57 °F -  
Max Temperature 62 °F 45 °F 62 °F (2013)
Min Temperature 52 °F 30 °F 21 °F (1991)
Degree Days  
Heating Degree Days 8    
Growing Degree Days 7 (Base 50)    
Moisture  
Dew Point 51 °F    
Average Humidity 77    
Maximum Humidity 89    
Minimum Humidity 64    
Precipitation  
Precipitation 0.31 in - - ()
Sea Level Pressure  
Sea Level Pressure 29.68 in    
Wind  
Wind Speed 13 mph (South)    
Max Wind Speed 39 mph    
Max Gust Speed 51 mph    
Visibility 9 miles    
Events Rain    
Averages and records for this station are not official NWS values.
T = Trace of Precipitation, MM = Missing Value Source: NWS Daily Summary

Daily Weather History Graph

Daily Weather History Graph

Search for Another Location

Airport or City:

Trip Planner

Search our weather history database for the weather conditions in past years. The results will help you decide how hot, cold, wet, or windy it might be!

Date:

Astronomy

Nov. 17, 2013 Rise Set
Actual Time 7:11 AM EST 4:49 PM EST
Civil Twilight 6:40 AM EST 5:20 PM EST
Nautical Twilight 6:05 AM EST 5:55 PM EST
Astronomical Twilight 5:32 AM EST 6:28 PM EST
Moon 5:05 PM EST (11/17) 7:03 AM EST (11/17)
Length of Visible Light 10h 40m
Length of Day
9h 38m
Full, 100% of the Moon is Illuminated
Nov 17
Full
Nov 25
Last Quarter
Dec 2
New
Dec 9
First Quarter
Dec 17
Full

Hourly Weather History & Observations

Time (EST) Temp. Dew Point Humidity Pressure Visibility Wind Dir Wind Speed Gust Speed Precip Events Conditions
12:53 AM 54.0 °F 42.1 °F 64% 29.96 in 10.0 mi SSE 9.2 mph - N/A   Clear
1:53 AM 55.0 °F 44.1 °F 67% 29.96 in 10.0 mi South 11.5 mph - N/A   Partly Cloudy
2:53 AM 55.0 °F 45.0 °F 69% 29.94 in 10.0 mi South 11.5 mph - 0.00 in   Overcast
3:53 AM 55.9 °F 45.0 °F 67% 29.91 in 10.0 mi South 10.4 mph - 0.00 in   Overcast
4:53 AM 55.0 °F 46.0 °F 72% 29.89 in 10.0 mi South 8.1 mph - 0.00 in   Overcast
5:53 AM 53.1 °F 48.0 °F 83% 29.88 in 10.0 mi South 12.7 mph - 0.04 in   Overcast
6:53 AM 52.0 °F 48.9 °F 89% 29.88 in 10.0 mi South 10.4 mph - 0.08 in   Overcast
7:04 AM 53.6 °F 48.2 °F 82% 29.86 in 10.0 mi South 11.5 mph - N/A   Overcast
7:53 AM 54.0 °F 48.9 °F 83% 29.86 in 10.0 mi South 15.0 mph 21.9 mph N/A   Overcast
8:53 AM 55.9 °F 50.0 °F 80% 29.85 in 10.0 mi South 13.8 mph 20.7 mph N/A   Overcast
9:53 AM 57.0 °F 50.0 °F 77% 29.85 in 10.0 mi South 17.3 mph 23.0 mph N/A   Mostly Cloudy
10:11 AM 57.2 °F 50.0 °F 77% 29.83 in 10.0 mi SSW 11.5 mph - 0.00 in Rain Light Rain
10:35 AM 57.2 °F 50.0 °F 77% 29.82 in 10.0 mi South 13.8 mph 20.7 mph 0.00 in   Mostly Cloudy
10:53 AM 57.9 °F 51.1 °F 78% 29.83 in 10.0 mi South 11.5 mph - 0.00 in   Mostly Cloudy
11:01 AM 59.0 °F 51.8 °F 77% 29.82 in 10.0 mi SSW 12.7 mph - 0.00 in Rain Light Rain
11:19 AM 55.4 °F 51.8 °F 88% 29.81 in 10.0 mi South 10.4 mph - 0.00 in   Overcast
11:23 AM 57.2 °F 51.8 °F 82% 29.80 in 10.0 mi South 10.4 mph - 0.00 in   Overcast
11:53 AM 57.9 °F 52.0 °F 81% 29.79 in 10.0 mi South 11.5 mph - 0.01 in   Overcast
12:53 PM 59.0 °F 52.0 °F 78% 29.75 in 10.0 mi South 11.5 mph - N/A   Overcast
1:29 PM 60.8 °F 53.6 °F 77% 29.73 in 10.0 mi South 11.5 mph - N/A   Mostly Cloudy
1:53 PM 61.0 °F 52.0 °F 72% 29.73 in 10.0 mi South 15.0 mph - N/A   Mostly Cloudy
2:40 PM 60.8 °F 51.8 °F 72% 29.68 in 10.0 mi South 12.7 mph 23.0 mph 0.00 in Rain Light Rain
2:53 PM 61.0 °F 52.0 °F 72% 29.68 in 10.0 mi South 12.7 mph - 0.00 in Rain Light Rain
3:37 PM 60.8 °F 51.8 °F 72% 29.64 in 10.0 mi South 15.0 mph 19.6 mph 0.00 in   Mostly Cloudy
3:53 PM 61.0 °F 52.0 °F 72% 29.64 in 10.0 mi South 11.5 mph - 0.00 in   Mostly Cloudy
4:29 PM 62.6 °F 51.8 °F 68% 29.61 in 10.0 mi South 15.0 mph 25.3 mph N/A   Mostly Cloudy
4:42 PM 60.8 °F 51.8 °F 72% 29.60 in 10.0 mi South 15.0 mph - N/A   Mostly Cloudy
4:53 PM 61.0 °F 52.0 °F 72% 29.60 in 10.0 mi South 12.7 mph - N/A   Mostly Cloudy
5:53 PM 61.0 °F 53.1 °F 75% 29.56 in 10.0 mi South 11.5 mph 24.2 mph N/A   Overcast
6:53 PM 62.1 °F 53.1 °F 72% 29.50 in 10.0 mi South 18.4 mph 27.6 mph N/A   Overcast
7:53 PM 62.1 °F 53.1 °F 72% 29.44 in 10.0 mi South 21.9 mph 31.1 mph N/A   Overcast
8:39 PM 62.6 °F 53.6 °F 72% 29.38 in 10.0 mi South 17.3 mph 26.5 mph 0.00 in Rain Light Rain
8:53 PM 62.1 °F 53.1 °F 72% 29.39 in 10.0 mi SSW 15.0 mph 23.0 mph 0.00 in Rain Light Rain
9:53 PM 59.0 °F 55.0 °F 87% 29.34 in 8.0 mi South 19.6 mph 27.6 mph 0.09 in Rain Light Rain
10:03 PM 59.0 °F 55.4 °F 88% 29.40 in 0.2 mi SW 39.1 mph 50.6 mph 0.06 in Rain Heavy Rain
10:05 PM 57.2 °F 53.6 °F 88% 29.40 in 1.0 mi SSW 33.4 mph 50.6 mph 0.07 in Rain Heavy Rain
10:07 PM 55.4 °F 51.8 °F 88% 29.39 in 3.0 mi SW 24.2 mph 50.6 mph 0.08 in Rain Heavy Rain
10:09 PM 55.4 °F 51.8 °F 88% 29.38 in 4.0 mi SW 21.9 mph 50.6 mph 0.08 in Rain Rain
10:53 PM 54.0 °F 48.0 °F 80% 29.36 in 10.0 mi SSW 17.3 mph 31.1 mph 0.09 in Rain Light Rain
11:53 PM 55.9 °F 45.0 °F 67% 29.37 in 10.0 mi SW 36.8 mph 49.5 mph 0.00 in   Mostly Cloudy